Showing default

COSMOS 2090, 20735

Orbit data source: Space-Track

COSMOS 2090, 20735 is a payload satellite owned by UNKS (CIS) in LEO that was launched on Wed, 08 Aug 1990 UTC via a TSIKLON-3 launch vehicle from the Plesetsk Missile And Space Complex (PKMTR). Payload-class satellites include a variety of spacecraft equipped with specific instruments for various scientific and technological missions. These include communications satellites like Starlink; space stations such as the ISS; scientific satellites like the Hubble; Earth observation satellites from companies like Planet Labs, Umbra, and HawkEye 360; GPS; miniature CubeSats for education and research; and military/defense satellites.

Loading next visibility...
Identifier
20735, 1990-070A
Orbit
LEO
Country
Flag of CISCIS
Related business
Manufacturer
NPO PM
Mission
Defense Communications
Bus & Motor
STRELA-3, Unknown motor
Mass
225 kg wet, 225 kg dry
Launch date (UTC)
1990-08-08 (35 years ago)
Launch vehicle
TSIKLON-3
Launch site
Plesetsk Missile And Space Complex (PKMTR)
Object type
Payload
Rocket body
Debris
Shape & HBR
Cyl, 0.8 m
Radar Cross Section
1.257 m², Large (>1 m²)

Expand to show TLE details & history
Last TLE update: 14 hours ago

TLE from 14 hours ago
0 COSMOS 2090
1 20735U 90070A   25288.62740206  .00000054  00000-0  23263-3 0  9993
2 20735  82.5645  69.3815 0013399 259.8684 111.5000 12.65357245625009
Epoch: 2025-10-15T15:03Z
TLE epoch observation values (Epoch: 2025-10-15T15:03:27.537Z)
Latitude
11.36954°
Longitude
-179.38567°
Altitude
1,406.726 km
Speed
7.156 km/s
True Right ascension
04h 43m 30s
True Declination
11° 18' 32"
Sunlit
Object was in full shadow at epoch
Visualization orbit readout
Latitude
Unknown
Longitude
Unknown
Altitude
Unknown
Speed
Unknown
Apparent Right ascension
Unknown
Apparent Declination
Unknown
Sunlit
N/A
Visualization observer readout
Local Sidereal Time
23:47:43
Azimuth
Unknown
Elevation
Unknown
Doppler factor
Unknown
Orbital elements
Apogee altitude
1,408.647 km
Perigee altitude
1,387.808 km
Semi-major axis
7,776.364 km
Eccentricity
0.00134
Inclination
82.5645°
RAAN
69.3815°
Arg. of periapsis
259.8684°
True anomaly
111.64277°
Mean anomaly
111.5°
Eccentric anomaly
111.57139°
Mean motion
3.16503 °/min
Orbital period
113.74 mins
BSTAR
0.00023263
Loading maneuver chart data...
Computing Atmospheric mass density...
Loading historical data...
Loading historical data...
Loading historical data...
Loading historical data...
Loading historical data...
Loading historical data...
Loading historical data...

Documentation

Showing up to 5 results
|